Voltar ao catálogo

STARLINK-32771

AtivoComunicaçõesVLEO
NORAD 62573·PAYLOAD·🇺🇸 United States

Lançado Jan 10, 2025 de Cape Canaveral Space Force Station

Loading…

Próximas Passagens (próximas 24 horas)

TLE

AtualizadoSource: CelesTrak SupGP

Época: Sep 14, 2026, 20:54 UTC

1 62573C 25006V   26257.87131944 -.00023509  00000+0 -85157-3 0  2571
2 62573  43.0016 303.9224 0001455 266.0582 266.9247 15.27586814    10

Acompanhe STARLINK-32771 em tempo real com AllMySat

Download on the App Store